Meteo Giornale » Osservazioni meteo Italia » Resia Pass

ore: 16:55 - Osservazioni Meteo Resia Pass
Lat. 46° 50' N Lon. 10° 30' E Alt. 1800 metri s.l.m.

poco_nuvoloso Europe/Rome

16 °C

Poco Nuvoloso

Temp. 24 Ore

5 °C

17 °C

Ovest/Sud-Ovest

7.4 Km/h

Dew point 7 °C

Umidità 55 %

Visibilità  10 Km

Il sole sorge alle ore 07:39

Il sole tramonta alle ore 18:27

Data e Ora Cielo e Fenomeni T °C DP °C Um. % Pres. hPa Vis. km Vento km/h
Oggi h: 16:55 poco_nuvoloso Poco Nuvoloso 16 7 55 1019 10 O/SO 7.4
Oggi h: 15:55 poco_nuvoloso Poco Nuvoloso 17 7 51 1019 10 S/SO 7.4
Oggi h: 14:55 poco_nuvoloso Poco Nuvoloso 17 6 48 1019 10 O/SO 7.4
Oggi h: 12:55 poco_nuvoloso Poco Nuvoloso 15 6 54 1020 10 N/NO 7.4
Oggi h: 11:55 poco_nuvoloso Poco Nuvoloso 13 7 66 1020 10 N 7.4
Oggi h: 10:55 sereno Sereno 9 7 87 1020 10 N/NE 11.1
Oggi h: 09:55 sereno Sereno 7 7 100 1020 10 N/NE 13
Oggi h: 08:55 sereno Sereno 6 6 100 1020 10 N/NE 9.3
Oggi h: 07:55 sereno Sereno 6 6 100 1020 10 N/NE 7.4
Oggi h: 06:55 sereno Sereno 5 5 100 1020 10 N 5.5
Oggi h: 05:55 sereno Sereno 6 6 100 1020 10 N 5.5
Oggi h: 04:55 sereno Sereno 6 6 100 1020 10 N 3.7
Oggi h: 03:55 sereno Sereno 6 6 100 1020 10 N/NE 7.4
Oggi h: 01:55 sereno Sereno 6 6 100 1021 10 N 0
Oggi h: 00:55 sereno Sereno 6 6 100 1021 10 N 0
Ieri h: 23:55 sereno Sereno 7 6 93 1021 10 N 0
Ieri h: 22:55 sereno Sereno 8 6 87 1021 10 N 0
Ieri h: 21:55 sereno Sereno 9 7 87 1021 10 N 0
Ieri h: 20:55 sereno Sereno 9 7 87 1020 10 N 0
Ieri h: 19:55 sereno Sereno 9 7 87 1020 10 N 5.5
Ieri h: 18:55 sereno Sereno 10 7 81 1020 10 S/SO 7.4